Time,TemperatureF,DewpointF,PressureIn,WindDirection,WindDirectionDegrees,WindSpeedMPH,WindSpeedGustMPH,Humidity,HourlyPrecipIn,Conditions,Clouds,dailyrainin,SoftwareType,DateUTC
2013-04-25 00:00:00,43.7,34.6,29.78,WNW,292,0.0,0.0,70,0.00,CLR,SKC,0.00,WeatherDisplay:10.37,2013-04-24 23:00:00,
2013-04-25 00:05:00,43.7,34.6,29.78,WNW,283,0.0,0.0,70,0.00,CLR,SKC,0.00,WeatherDisplay:10.37,2013-04-24 23:05:00,
2013-04-25 00:10:00,43.5,34.4,29.78,West,270,0.0,0.0,70,0.00,CLR,SKC,0.00,WeatherDisplay:10.37,2013-04-24 23:10:00,
2013-04-25 00:15:00,43.5,34.4,29.78,WNW,282,0.0,0.0,70,0.00,CLR,SKC,0.00,WeatherDisplay:10.37,2013-04-24 23:15:00,
2013-04-25 00:20:00,43.5,34.4,29.77,West,270,0.0,0.0,70,0.00,CLR,SKC,0.00,WeatherDisplay:10.37,2013-04-24 23:20:00,
2013-04-25 00:25:00,43.3,34.2,29.78,West,270,0.0,0.0,70,0.00,CLR,SKC,0.00,WeatherDisplay:10.37,2013-04-24 23:25:00,
2013-04-25 00:30:00,43.3,34.6,29.77,West,270,0.0,0.0,71,0.00,CLR,SKC,0.00,WeatherDisplay:10.37,2013-04-24 23:30:00,
2013-04-25 00:35:00,43.3,34.6,29.77,WNW,292,0.0,0.0,71,0.00,CLR,SKC,0.00,WeatherDisplay:10.37,2013-04-24 23:35:00,
2013-04-25 00:40:00,43.3,34.6,29.77,WNW,292,0.0,0.0,71,0.00,CLR,SKC,0.00,WeatherDisplay:10.37,2013-04-24 23:40:00,
2013-04-25 00:45:00,43.3,34.6,29.77,WNW,292,0.0,0.0,71,0.00,CLR,SKC,0.00,WeatherDisplay:10.37,2013-04-24 23:45:00,
2013-04-25 00:50:00,43.3,34.6,29.77,WNW,292,0.0,0.0,71,0.00,CLR,SKC,0.00,WeatherDisplay:10.37,2013-04-24 23:50:00,
2013-04-25 00:55:00,43.3,34.6,29.77,WNW,292,0.0,0.0,71,0.00,CLR,SKC,0.00,WeatherDisplay:10.37,2013-04-24 23:55:00,
2013-04-25 01:00:00,43.3,34.6,29.77,WNW,287,0.0,0.0,71,0.00,CLR,SKC,0.00,WeatherDisplay:10.37,2013-04-25 00:00:00,
2013-04-25 01:05:00,43.3,34.6,29.77,West,270,0.0,0.0,71,0.00,CLR,SKC,0.00,WeatherDisplay:10.37,2013-04-25 00:05:00,
2013-04-25 01:10:00,43.2,34.7,29.77,West,272,0.0,0.0,72,0.00,CLR,SKC,0.00,WeatherDisplay:10.37,2013-04-25 00:10:00,
2013-04-25 01:15:00,43.3,34.9,29.77,West,270,0.0,0.0,72,0.00,CLR,SKC,0.00,WeatherDisplay:10.37,2013-04-25 00:15:00,
2013-04-25 01:20:00,43.3,34.9,29.76,SW,225,0.0,0.0,72,0.00,CLR,SKC,0.00,WeatherDisplay:10.37,2013-04-25 00:20:00,
2013-04-25 01:25:00,43.3,34.9,29.76,West,259,0.0,0.0,72,0.00,CLR,SKC,0.00,WeatherDisplay:10.37,2013-04-25 00:25:00,
2013-04-25 01:30:00,43.3,34.9,29.76,West,269,0.0,0.0,72,0.00,CLR,SKC,0.00,WeatherDisplay:10.37,2013-04-25 00:30:00,
2013-04-25 01:35:00,43.2,34.7,29.77,West,270,0.0,0.0,72,0.00,CLR,SKC,0.00,WeatherDisplay:10.37,2013-04-25 00:35:00,
2013-04-25 01:39:00,43.2,34.7,29.76,WSW,248,0.0,0.0,72,0.00,CLR,SKC,0.00,WeatherDisplay:10.37,2013-04-25 00:39:00,
2013-04-25 01:45:00,43.2,34.7,29.76,West,270,0.0,0.0,72,0.00,CLR,SKC,0.00,WeatherDisplay:10.37,2013-04-25 00:45:00,
2013-04-25 01:50:00,43.3,34.9,29.76,WSW,248,0.0,0.0,72,0.00,CLR,SKC,0.00,WeatherDisplay:10.37,2013-04-25 00:50:00,
2013-04-25 01:55:00,43.3,34.9,29.76,West,278,0.0,0.0,72,0.00,CLR,SKC,0.00,WeatherDisplay:10.37,2013-04-25 00:55:00,
2013-04-25 02:00:00,43.2,34.7,29.76,WNW,292,0.0,0.0,72,0.00,CLR,SKC,0.00,WeatherDisplay:10.37,2013-04-25 01:00:00,
2013-04-25 02:05:00,43.2,34.7,29.76,WNW,292,0.0,0.0,72,0.00,CLR,SKC,0.00,WeatherDisplay:10.37,2013-04-25 01:05:00,
2013-04-25 02:09:00,43.2,34.7,29.76,WNW,292,0.0,0.0,72,0.00,CLR,SKC,0.00,WeatherDisplay:10.37,2013-04-25 01:09:00,
2013-04-25 02:15:00,43.0,34.6,29.76,NW,315,0.0,0.0,72,0.00,CLR,SKC,0.00,WeatherDisplay:10.37,2013-04-25 01:15:00,
2013-04-25 02:20:00,43.0,34.6,29.76,NW,306,0.0,0.0,72,0.00,CLR,SKC,0.00,WeatherDisplay:10.37,2013-04-25 01:20:00,
2013-04-25 02:25:00,43.0,34.6,29.76,WNW,298,0.0,0.0,72,0.00,CLR,SKC,0.00,WeatherDisplay:10.37,2013-04-25 01:25:00,
2013-04-25 02:30:00,43.0,34.6,29.76,WNW,292,0.0,0.0,72,0.00,CLR,SKC,0.00,WeatherDisplay:10.37,2013-04-25 01:30:00,
2013-04-25 02:35:00,43.0,34.6,29.75,WNW,292,0.0,0.0,72,0.00,CLR,SKC,0.00,WeatherDisplay:10.37,2013-04-25 01:35:00,
2013-04-25 02:40:00,42.8,34.4,29.76,WNW,292,0.0,0.0,72,0.00,CLR,SKC,0.00,WeatherDisplay:10.37,2013-04-25 01:40:00,
2013-04-25 02:45:00,42.6,34.6,29.75,NW,315,0.0,0.0,73,0.00,CLR,SKC,0.00,WeatherDisplay:10.37,2013-04-25 01:45:00,
2013-04-25 02:50:00,42.6,34.6,29.75,NW,307,0.0,0.0,73,0.00,CLR,SKC,0.00,WeatherDisplay:10.37,2013-04-25 01:50:00,
2013-04-25 02:55:00,42.8,34.7,29.75,NW,315,0.0,0.0,73,0.00,CLR,SKC,0.00,WeatherDisplay:10.37,2013-04-25 01:55:00,
2013-04-25 03:00:00,42.6,34.6,29.75,NW,315,0.0,0.0,73,0.00,CLR,SKC,0.00,WeatherDisplay:10.37,2013-04-25 02:00:00,
2013-04-25 03:05:00,42.6,34.6,29.75,NW,310,0.0,0.0,73,0.00,CLR,SKC,0.00,WeatherDisplay:10.37,2013-04-25 02:05:00,
2013-04-25 03:10:00,42.6,34.6,29.75,West,270,0.0,0.0,73,0.00,CLR,SKC,0.00,WeatherDisplay:10.37,2013-04-25 02:10:00,
2013-04-25 03:15:00,42.6,34.6,29.75,WSW,257,0.0,0.0,73,0.00,CLR,SKC,0.00,WeatherDisplay:10.37,2013-04-25 02:15:00,
2013-04-25 03:20:00,42.6,34.6,29.75,SW,233,0.0,0.0,73,0.00,CLR,SKC,0.00,WeatherDisplay:10.37,2013-04-25 02:20:00,
2013-04-25 03:25:00,42.6,34.6,29.75,WNW,292,0.0,0.0,73,0.00,CLR,SKC,0.00,WeatherDisplay:10.37,2013-04-25 02:25:00,
2013-04-25 03:30:00,42.4,34.4,29.75,West,270,0.0,0.0,73,0.00,CLR,SKC,0.00,WeatherDisplay:10.37,2013-04-25 02:30:00,
2013-04-25 03:35:00,42.1,34.0,29.74,West,270,0.0,0.0,73,0.00,CLR,SKC,0.00,WeatherDisplay:10.37,2013-04-25 02:35:00,
2013-04-25 03:40:00,42.1,34.0,29.74,West,270,0.0,0.0,73,0.00,CLR,SKC,0.00,WeatherDisplay:10.37,2013-04-25 02:40:00,
2013-04-25 03:45:00,42.1,34.0,29.74,West,269,0.0,0.0,73,0.00,CLR,SKC,0.00,WeatherDisplay:10.37,2013-04-25 02:45:00,
2013-04-25 03:50:00,42.1,34.0,29.74,WSW,248,0.0,0.0,73,0.00,CLR,SKC,0.00,WeatherDisplay:10.37,2013-04-25 02:50:00,
2013-04-25 03:55:00,42.1,34.4,29.74,WSW,248,0.0,0.0,74,0.00,CLR,SKC,0.00,WeatherDisplay:10.37,2013-04-25 02:55:00,
2013-04-25 04:00:00,41.9,34.2,29.73,WSW,249,0.0,0.0,74,0.00,CLR,SKC,0.00,WeatherDisplay:10.37,2013-04-25 03:00:00,
2013-04-25 04:05:00,41.9,34.2,29.73,WSW,248,0.0,0.0,74,0.00,CLR,SKC,0.00,WeatherDisplay:10.37,2013-04-25 03:05:00,
2013-04-25 04:10:00,41.9,34.2,29.74,West,270,0.0,0.0,74,0.00,CLR,SKC,0.00,WeatherDisplay:10.37,2013-04-25 03:10:00,
2013-04-25 04:15:00,41.9,34.6,29.73,West,266,0.0,0.0,75,0.00,CLR,SKC,0.00,WeatherDisplay:10.37,2013-04-25 03:15:00,
2013-04-25 04:20:00,41.9,34.6,29.73,West,270,0.0,0.0,75,0.00,CLR,SKC,0.00,WeatherDisplay:10.37,2013-04-25 03:20:00,
2013-04-25 04:25:00,41.9,34.6,29.73,West,276,0.0,0.0,75,0.00,CLR,SKC,0.00,WeatherDisplay:10.37,2013-04-25 03:25:00,
2013-04-25 04:30:00,41.9,34.6,29.73,WNW,287,0.0,0.0,75,0.00,CLR,SKC,0.00,WeatherDisplay:10.37,2013-04-25 03:30:00,
2013-04-25 04:35:00,41.9,34.6,29.73,WNW,292,0.0,0.0,75,0.00,CLR,SKC,0.00,WeatherDisplay:10.37,2013-04-25 03:35:00,
2013-04-25 04:40:00,41.9,34.6,29.73,WNW,292,0.0,0.0,75,0.00,CLR,SKC,0.00,WeatherDisplay:10.37,2013-04-25 03:40:00,
2013-04-25 04:45:00,41.9,34.6,29.73,West,279,0.0,0.0,75,0.00,CLR,SKC,0.00,WeatherDisplay:10.37,2013-04-25 03:45:00,
2013-04-25 04:50:00,41.7,34.4,29.73,WNW,292,0.0,0.0,75,0.00,CLR,SKC,0.00,WeatherDisplay:10.37,2013-04-25 03:50:00,
2013-04-25 04:54:00,41.5,34.2,29.73,WNW,292,0.0,0.0,75,0.00,CLR,SKC,0.00,WeatherDisplay:10.37,2013-04-25 03:54:00,
2013-04-25 05:00:00,41.5,34.5,29.73,WNW,292,0.0,0.0,76,0.00,CLR,SKC,0.00,WeatherDisplay:10.37,2013-04-25 04:00:00,
2013-04-25 05:01:00,41.5,34.5,29.73,WNW,292,0.0,0.0,76,0.00,CLR,SKC,0.00,WeatherDisplay:10.37,2013-04-25 04:01:00,
2013-04-25 05:06:00,41.5,34.5,29.72,WNW,292,0.0,0.0,76,0.00,CLR,SKC,0.00,WeatherDisplay:10.37,2013-04-25 04:06:00,
2013-04-25 05:11:00,41.4,34.4,29.73,West,270,0.0,0.0,76,0.00,CLR,SKC,0.00,WeatherDisplay:10.37,2013-04-25 04:11:00,
2013-04-25 05:16:00,41.4,34.4,29.72,WNW,292,0.0,0.0,76,0.00,CLR,SKC,0.00,WeatherDisplay:10.37,2013-04-25 04:16:00,
2013-04-25 05:21:00,41.4,34.7,29.72,WNW,292,0.0,0.0,77,0.00,CLR,SKC,0.00,WeatherDisplay:10.37,2013-04-25 04:21:00,
2013-04-25 05:26:00,41.4,34.7,29.72,WSW,248,0.0,0.0,77,0.00,CLR,SKC,0.00,WeatherDisplay:10.37,2013-04-25 04:26:00,
2013-04-25 05:31:00,41.4,34.7,29.72,West,270,0.0,0.0,77,0.00,CLR,SKC,0.00,WeatherDisplay:10.37,2013-04-25 04:31:00,
2013-04-25 05:36:00,41.5,34.9,29.71,West,270,0.0,0.0,77,0.00,CLR,SKC,0.00,WeatherDisplay:10.37,2013-04-25 04:36:00,
2013-04-25 05:41:00,41.5,34.9,29.72,NW,315,0.0,0.0,77,0.00,CLR,SKC,0.00,WeatherDisplay:10.37,2013-04-25 04:41:00,
2013-04-25 05:46:00,41.5,34.9,29.72,West,270,0.0,0.0,77,0.00,CLR,SKC,0.00,WeatherDisplay:10.37,2013-04-25 04:46:00,
2013-04-25 05:51:00,41.5,35.2,29.72,West,270,0.0,0.0,78,0.00,CLR,SKC,0.00,WeatherDisplay:10.37,2013-04-25 04:51:00,
2013-04-25 05:56:00,41.7,35.4,29.72,West,270,0.0,0.0,78,0.00,CLR,SKC,0.00,WeatherDisplay:10.37,2013-04-25 04:56:00,
2013-04-25 06:01:00,41.7,35.4,29.71,West,270,0.0,0.0,78,0.00,CLR,SKC,0.00,WeatherDisplay:10.37,2013-04-25 05:01:00,
2013-04-25 06:06:00,41.9,35.5,29.71,SW,225,0.0,0.0,78,0.00,CLR,SKC,0.00,WeatherDisplay:10.37,2013-04-25 05:06:00,
2013-04-25 06:11:00,42.1,35.7,29.71,West,270,0.0,0.0,78,0.00,CLR,SKC,0.00,WeatherDisplay:10.37,2013-04-25 05:11:00,
2013-04-25 06:16:00,41.9,35.9,29.71,WSW,248,0.0,0.0,79,0.00,CLR,SKC,0.00,WeatherDisplay:10.37,2013-04-25 05:16:00,
2013-04-25 06:21:00,42.1,36.0,29.71,WSW,248,0.0,0.0,79,0.00,CLR,SKC,0.00,WeatherDisplay:10.37,2013-04-25 05:21:00,
2013-04-25 06:26:00,42.1,36.0,29.70,SW,225,0.0,0.0,79,0.00,CLR,SKC,0.00,WeatherDisplay:10.37,2013-04-25 05:26:00,
2013-04-25 06:31:00,42.1,36.0,29.70,West,270,0.0,0.0,79,0.00,CLR,SKC,0.00,WeatherDisplay:10.37,2013-04-25 05:31:00,
2013-04-25 06:36:00,42.1,36.0,29.71,WSW,248,0.0,0.0,79,0.00,CLR,SKC,0.00,WeatherDisplay:10.37,2013-04-25 05:36:00,
2013-04-25 06:41:00,42.1,36.0,29.71,WSW,248,0.0,0.0,79,0.00,CLR,SKC,0.00,WeatherDisplay:10.37,2013-04-25 05:41:00,
2013-04-25 06:46:00,42.1,36.4,29.71,West,270,0.0,0.0,80,0.00,CLR,SKC,0.00,WeatherDisplay:10.37,2013-04-25 05:46:00,
2013-04-25 06:51:00,42.1,36.4,29.71,SSW,202,0.0,0.0,80,0.00,CLR,SKC,0.00,WeatherDisplay:10.37,2013-04-25 05:51:00,
2013-04-25 06:56:00,42.1,36.4,29.70,West,270,0.0,0.0,80,0.00,CLR,SKC,0.00,WeatherDisplay:10.37,2013-04-25 05:56:00,
2013-04-25 07:01:00,42.1,36.4,29.71,WSW,248,0.0,0.0,80,0.00,CLR,SKC,0.00,WeatherDisplay:10.37,2013-04-25 06:01:00,
2013-04-25 07:06:00,41.9,36.2,29.71,WSW,248,0.0,0.0,80,0.00,CLR,SKC,0.00,WeatherDisplay:10.37,2013-04-25 06:06:00,
2013-04-25 07:11:00,42.1,36.7,29.70,WNW,292,0.0,0.0,81,0.00,CLR,SKC,0.00,WeatherDisplay:10.37,2013-04-25 06:11:00,
2013-04-25 07:16:00,42.4,37.0,29.70,WSW,248,0.0,0.0,81,0.00,CLR,SKC,0.00,WeatherDisplay:10.37,2013-04-25 06:16:00,
2013-04-25 07:21:00,42.6,37.2,29.69,SW,225,0.0,0.0,81,0.00,CLR,SKC,0.00,WeatherDisplay:10.37,2013-04-25 06:21:00,
2013-04-25 07:26:00,42.6,37.2,29.69,West,270,0.0,0.0,81,0.00,CLR,SKC,0.00,WeatherDisplay:10.37,2013-04-25 06:26:00,
2013-04-25 07:31:00,42.6,37.2,29.70,SW,225,0.0,0.0,81,0.00,CLR,SKC,0.00,WeatherDisplay:10.37,2013-04-25 06:31:00,
2013-04-25 07:36:00,43.0,37.5,29.70,SSW,202,0.0,0.0,81,0.00,CLR,SKC,0.00,WeatherDisplay:10.37,2013-04-25 06:36:00,
2013-04-25 07:41:00,43.2,37.7,29.70,WSW,248,0.0,0.0,81,0.00,CLR,SKC,0.00,WeatherDisplay:10.37,2013-04-25 06:41:00,
2013-04-25 07:46:00,43.2,37.7,29.70,SSW,202,0.0,0.0,81,0.00,CLR,SKC,0.00,WeatherDisplay:10.37,2013-04-25 06:46:00,
2013-04-25 07:51:00,43.3,37.9,29.69,WSW,248,0.0,0.0,81,0.00,CLR,SKC,0.00,WeatherDisplay:10.37,2013-04-25 06:51:00,
2013-04-25 07:56:00,43.5,38.4,29.69,SW,225,0.0,0.0,82,0.00,CLR,SKC,0.00,WeatherDisplay:10.37,2013-04-25 06:56:00,
2013-04-25 08:02:00,43.9,38.7,29.69,West,270,0.0,0.0,82,0.00,CLR,SKC,0.00,WeatherDisplay:10.37,2013-04-25 07:02:00,
2013-04-25 08:07:00,44.2,39.1,29.69,WNW,292,0.0,0.0,82,0.00,CLR,SKC,0.00,WeatherDisplay:10.37,2013-04-25 07:07:00,
2013-04-25 08:12:00,44.2,38.8,29.69,WSW,248,0.0,0.0,81,0.00,CLR,SKC,0.00,WeatherDisplay:10.37,2013-04-25 07:12:00,
2013-04-25 08:17:00,44.2,38.8,29.70,SW,225,0.0,0.0,81,0.00,CLR,SKC,0.00,WeatherDisplay:10.37,2013-04-25 07:17:00,
2013-04-25 08:22:00,44.2,38.8,29.69,WSW,248,0.0,0.0,81,0.00,CLR,SKC,0.00,WeatherDisplay:10.37,2013-04-25 07:22:00,
2013-04-25 08:27:00,44.2,38.8,29.69,WNW,292,0.0,0.0,81,0.00,CLR,SKC,0.00,WeatherDisplay:10.37,2013-04-25 07:27:00,
2013-04-25 08:32:00,44.2,38.5,29.69,WNW,292,0.0,0.0,80,0.00,CLR,SKC,0.00,WeatherDisplay:10.37,2013-04-25 07:32:00,
2013-04-25 08:37:00,44.4,38.6,29.69,WSW,248,0.0,0.0,80,0.00,CLR,SKC,0.00,WeatherDisplay:10.37,2013-04-25 07:37:00,
2013-04-25 08:42:00,44.4,39.0,29.69,West,270,0.0,0.0,81,0.00,CLR,SKC,0.00,WeatherDisplay:10.37,2013-04-25 07:42:00,
2013-04-25 08:47:00,44.4,39.0,29.69,WNW,292,0.0,0.0,81,0.00,CLR,SKC,0.00,WeatherDisplay:10.37,2013-04-25 07:47:00,
2013-04-25 08:52:00,44.4,39.0,29.70,NNW,338,0.0,0.0,81,0.00,CLR,SKC,0.00,WeatherDisplay:10.37,2013-04-25 07:52:00,
2013-04-25 08:57:00,44.2,38.8,29.69,West,270,0.0,0.0,81,0.00,CLR,SKC,0.00,WeatherDisplay:10.37,2013-04-25 07:57:00,
2013-04-25 09:02:00,44.2,38.8,29.70,WSW,248,0.0,0.0,81,0.00,CLR,SKC,0.00,WeatherDisplay:10.37,2013-04-25 08:02:00,
2013-04-25 09:07:00,44.2,38.8,29.69,SW,225,0.0,0.0,81,0.00,CLR,SKC,0.00,WeatherDisplay:10.37,2013-04-25 08:07:00,
2013-04-25 09:12:00,44.2,38.8,29.69,SW,225,0.0,0.0,81,0.00,CLR,SKC,0.00,WeatherDisplay:10.37,2013-04-25 08:12:00,
2013-04-25 09:17:00,44.4,39.0,29.69,SSW,202,0.0,0.0,81,0.00,CLR,SKC,0.00,WeatherDisplay:10.37,2013-04-25 08:17:00,
2013-04-25 09:22:00,44.8,39.3,29.69,SW,225,0.0,0.0,81,0.00,CLR,SKC,0.00,WeatherDisplay:10.37,2013-04-25 08:22:00,
2013-04-25 09:27:00,45.0,39.5,29.69,West,270,0.0,0.0,81,0.00,CLR,SKC,0.00,WeatherDisplay:10.37,2013-04-25 08:27:00,
2013-04-25 09:32:00,45.1,39.7,29.69,WSW,248,0.0,0.0,81,0.00,CLR,SKC,0.00,WeatherDisplay:10.37,2013-04-25 08:32:00,
2013-04-25 09:37:00,45.7,40.2,29.69,SSW,202,0.0,0.0,81,0.00,CLR,SKC,0.00,WeatherDisplay:10.37,2013-04-25 08:37:00,
2013-04-25 09:42:00,46.6,41.1,29.68,West,270,0.0,0.0,81,0.00,CLR,SKC,0.00,WeatherDisplay:10.37,2013-04-25 08:42:00,
2013-04-25 09:47:00,48.0,42.8,29.68,West,270,0.0,0.0,82,0.00,CLR,SKC,0.00,WeatherDisplay:10.37,2013-04-25 08:47:00,
2013-04-25 09:52:00,48.6,43.0,29.68,SW,225,0.0,0.0,81,0.00,CLR,SKC,0.00,WeatherDisplay:10.37,2013-04-25 08:52:00,
2013-04-25 09:57:00,49.1,42.5,29.68,WNW,292,0.0,0.0,78,0.00,CLR,SKC,0.00,WeatherDisplay:10.37,2013-04-25 08:57:00,
2013-04-25 10:02:00,49.3,42.4,29.68,West,270,0.0,0.0,77,0.00,CLR,SKC,0.00,WeatherDisplay:10.37,2013-04-25 09:02:00,
2013-04-25 10:07:00,49.6,42.4,29.67,WNW,292,0.0,0.0,76,0.00,CLR,SKC,0.00,WeatherDisplay:10.37,2013-04-25 09:07:00,
2013-04-25 10:12:00,48.7,41.5,29.68,WNW,292,0.0,0.0,76,0.00,CLR,SKC,0.00,WeatherDisplay:10.37,2013-04-25 09:12:00,
2013-04-25 10:17:00,48.2,40.6,29.68,WSW,248,0.0,0.0,75,0.00,CLR,SKC,0.00,WeatherDisplay:10.37,2013-04-25 09:17:00,
2013-04-25 10:22:00,47.8,40.3,29.68,West,270,0.0,0.0,75,0.00,CLR,SKC,0.00,WeatherDisplay:10.37,2013-04-25 09:22:00,
2013-04-25 10:27:00,47.3,39.8,29.68,West,270,0.0,0.0,75,0.00,CLR,SKC,0.00,WeatherDisplay:10.37,2013-04-25 09:27:00,
2013-04-25 10:32:00,46.8,39.3,29.67,WNW,292,0.0,0.0,75,0.00,CLR,SKC,0.00,WeatherDisplay:10.37,2013-04-25 09:32:00,
2013-04-25 10:37:00,46.6,39.4,29.68,West,270,0.0,0.0,76,0.00,CLR,SKC,0.00,WeatherDisplay:10.37,2013-04-25 09:37:00,
2013-04-25 10:42:00,46.2,39.1,29.67,WSW,248,0.0,0.0,76,0.00,CLR,SKC,0.00,WeatherDisplay:10.37,2013-04-25 09:42:00,
2013-04-25 10:47:00,46.6,39.4,29.67,WNW,292,0.0,0.0,76,0.00,CLR,SKC,0.00,WeatherDisplay:10.37,2013-04-25 09:47:00,
2013-04-25 10:52:00,46.8,39.9,29.67,West,270,0.0,0.0,77,0.00,CLR,SKC,0.00,WeatherDisplay:10.37,2013-04-25 09:52:00,
2013-04-25 10:57:00,47.7,40.8,29.67,SW,225,0.0,0.0,77,0.00,CLR,SKC,0.00,WeatherDisplay:10.37,2013-04-25 09:57:00,
2013-04-25 11:02:00,48.0,41.2,29.67,NW,315,0.0,0.0,77,0.00,CLR,SKC,0.00,WeatherDisplay:10.37,2013-04-25 10:02:00,
2013-04-25 11:07:00,48.7,41.5,29.67,SW,225,0.0,0.0,76,0.00,CLR,SKC,0.00,WeatherDisplay:10.37,2013-04-25 10:07:00,
2013-04-25 11:12:00,50.2,42.9,29.67,WSW,248,0.0,0.0,76,0.00,CLR,SKC,0.00,WeatherDisplay:10.37,2013-04-25 10:12:00,
2013-04-25 11:17:00,51.1,43.8,29.66,WNW,292,0.0,0.0,76,0.00,CLR,SKC,0.00,WeatherDisplay:10.37,2013-04-25 10:17:00,
2013-04-25 11:22:00,52.2,44.5,29.66,WSW,248,0.0,0.0,75,0.00,CLR,SKC,0.00,WeatherDisplay:10.37,2013-04-25 10:22:00,
2013-04-25 11:27:00,53.4,44.6,29.66,SW,225,0.0,0.0,72,0.00,CLR,SKC,0.00,WeatherDisplay:10.37,2013-04-25 10:27:00,
2013-04-25 11:32:00,53.4,44.2,29.66,North,0,0.0,0.0,71,0.00,CLR,SKC,0.00,WeatherDisplay:10.37,2013-04-25 10:32:00,
2013-04-25 11:37:00,52.7,43.2,29.66,West,270,0.0,0.0,70,0.00,CLR,SKC,0.00,WeatherDisplay:10.37,2013-04-25 10:37:00,
2013-04-25 11:42:00,51.4,41.6,29.66,WSW,248,0.0,0.0,69,0.00,CLR,SKC,0.00,WeatherDisplay:10.37,2013-04-25 10:42:00,
2013-04-25 11:47:00,50.7,41.3,29.66,SW,225,0.0,0.0,70,0.00,CLR,SKC,0.00,WeatherDisplay:10.37,2013-04-25 10:47:00,
2013-04-25 11:52:00,50.4,40.9,29.65,West,270,0.0,0.0,70,0.00,CLR,SKC,0.00,WeatherDisplay:10.37,2013-04-25 10:52:00,
2013-04-25 11:57:00,50.4,41.3,29.66,West,270,0.0,0.0,71,0.00,CLR,SKC,0.00,WeatherDisplay:10.37,2013-04-25 10:57:00,
2013-04-25 12:02:00,50.7,41.7,29.65,WNW,292,0.0,0.0,71,0.00,CLR,SKC,0.00,WeatherDisplay:10.37,2013-04-25 11:02:00,
2013-04-25 12:07:00,51.1,42.0,29.65,WNW,292,0.0,0.0,71,0.00,CLR,SKC,0.00,WeatherDisplay:10.37,2013-04-25 11:07:00,
2013-04-25 12:12:00,51.4,42.3,29.65,South,180,0.0,0.0,71,0.00,CLR,SKC,0.00,WeatherDisplay:10.37,2013-04-25 11:12:00,
2013-04-25 12:17:00,51.4,42.0,29.65,NW,315,0.0,0.0,70,0.00,CLR,SKC,0.00,WeatherDisplay:10.37,2013-04-25 11:17:00,
2013-04-25 12:22:00,50.9,41.5,29.65,West,270,0.0,0.0,70,0.00,CLR,SKC,0.00,WeatherDisplay:10.37,2013-04-25 11:22:00,
2013-04-25 12:27:00,50.7,41.3,29.65,NW,315,0.0,0.0,70,0.00,CLR,SKC,0.00,WeatherDisplay:10.37,2013-04-25 11:27:00,
2013-04-25 12:32:00,50.2,40.4,29.64,NW,315,0.0,0.0,69,0.00,CLR,SKC,0.00,WeatherDisplay:10.37,2013-04-25 11:32:00,
2013-04-25 12:37:00,49.6,40.3,29.64,West,270,0.0,0.0,70,0.00,CLR,SKC,0.00,WeatherDisplay:10.37,2013-04-25 11:37:00,
2013-04-25 12:42:00,49.6,40.6,29.64,NNW,338,0.0,0.0,71,0.00,CLR,SKC,0.00,WeatherDisplay:10.37,2013-04-25 11:42:00,
2013-04-25 12:47:00,49.8,40.4,29.64,NW,315,0.0,0.0,70,0.00,CLR,SKC,0.00,WeatherDisplay:10.37,2013-04-25 11:47:00,
2013-04-25 12:53:00,49.8,40.4,29.64,NW,315,0.0,0.0,70,0.00,CLR,SKC,0.00,WeatherDisplay:10.37,2013-04-25 11:53:00,
2013-04-25 12:58:00,50.5,41.1,29.64,NNW,338,0.0,0.0,70,0.00,CLR,SKC,0.00,WeatherDisplay:10.37,2013-04-25 11:58:00,
2013-04-25 13:03:00,50.7,41.3,29.64,WNW,292,0.0,0.0,70,0.00,CLR,SKC,0.00,WeatherDisplay:10.37,2013-04-25 12:03:00,
2013-04-25 13:08:00,51.1,41.6,29.64,NW,315,0.0,0.0,70,0.00,CLR,SKC,0.00,WeatherDisplay:10.37,2013-04-25 12:08:00,
2013-04-25 13:13:00,52.3,42.8,29.63,NW,315,0.0,0.0,70,0.00,CLR,SKC,0.00,WeatherDisplay:10.37,2013-04-25 12:13:00,
2013-04-25 13:18:00,53.4,43.9,29.63,SSW,202,0.0,0.0,70,0.00,CLR,SKC,0.00,WeatherDisplay:10.37,2013-04-25 12:18:00,
2013-04-25 13:23:00,53.4,43.1,29.63,WNW,292,0.0,0.0,68,0.00,CLR,SKC,0.00,WeatherDisplay:10.37,2013-04-25 12:23:00,
2013-04-25 13:28:00,53.6,42.9,29.62,West,270,0.0,0.0,67,0.00,CLR,SKC,0.00,WeatherDisplay:10.37,2013-04-25 12:28:00,
2013-04-25 13:33:00,53.8,42.7,29.63,WSW,248,0.0,0.0,66,0.00,CLR,SKC,0.00,WeatherDisplay:10.37,2013-04-25 12:33:00,
2013-04-25 13:38:00,53.8,42.3,29.63,WNW,292,0.0,0.0,65,0.00,CLR,SKC,0.00,WeatherDisplay:10.37,2013-04-25 12:38:00,
2013-04-25 13:43:00,53.4,41.9,29.62,WNW,292,0.0,0.0,65,0.00,CLR,SKC,0.00,WeatherDisplay:10.37,2013-04-25 12:43:00,
2013-04-25 13:48:00,53.8,42.3,29.62,NW,315,0.0,0.0,65,0.00,CLR,SKC,0.00,WeatherDisplay:10.37,2013-04-25 12:48:00,
2013-04-25 13:53:00,54.1,42.6,29.62,SW,225,0.0,0.0,65,0.00,CLR,SKC,0.00,WeatherDisplay:10.37,2013-04-25 12:53:00,
2013-04-25 13:58:00,54.7,43.1,29.62,WSW,248,0.0,0.0,65,0.00,CLR,SKC,0.00,WeatherDisplay:10.37,2013-04-25 12:58:00,
2013-04-25 14:03:00,55.0,42.7,29.62,North,0,0.0,0.0,63,0.00,CLR,SKC,0.00,WeatherDisplay:10.37,2013-04-25 13:03:00,
2013-04-25 14:08:00,55.6,43.2,29.62,SW,225,0.0,0.0,63,0.00,CLR,SKC,0.00,WeatherDisplay:10.37,2013-04-25 13:08:00,
2013-04-25 14:13:00,56.1,43.3,29.62,West,270,0.0,0.0,62,0.00,CLR,SKC,0.00,WeatherDisplay:10.37,2013-04-25 13:13:00,
2013-04-25 14:18:00,56.1,42.8,29.62,WNW,292,0.0,0.0,61,0.00,CLR,SKC,0.00,WeatherDisplay:10.37,2013-04-25 13:18:00,
2013-04-25 14:23:00,55.6,42.3,29.61,WSW,248,0.0,0.0,61,0.00,CLR,SKC,0.00,WeatherDisplay:10.37,2013-04-25 13:23:00,
2013-04-25 14:28:00,55.6,42.3,29.61,NW,315,0.0,0.0,61,0.00,CLR,SKC,0.00,WeatherDisplay:10.37,2013-04-25 13:28:00,
2013-04-25 14:33:00,55.6,42.3,29.61,WNW,292,0.0,0.0,61,0.00,CLR,SKC,0.00,WeatherDisplay:10.37,2013-04-25 13:33:00,
2013-04-25 14:38:00,55.0,41.4,29.61,WSW,248,0.0,0.0,60,0.00,CLR,SKC,0.00,WeatherDisplay:10.37,2013-04-25 13:38:00,
2013-04-25 14:43:00,54.7,41.1,29.61,WSW,248,0.0,0.0,60,0.00,CLR,SKC,0.00,WeatherDisplay:10.37,2013-04-25 13:43:00,
2013-04-25 14:48:00,54.3,40.7,29.62,North,0,0.0,0.0,60,0.00,CLR,SKC,0.00,WeatherDisplay:10.37,2013-04-25 13:48:00,
2013-04-25 14:53:00,54.1,41.8,29.61,WNW,292,0.0,0.0,63,0.00,CLR,SKC,0.00,WeatherDisplay:10.37,2013-04-25 13:53:00,
2013-04-25 14:58:00,53.8,41.5,29.61,WNW,292,0.0,0.0,63,0.00,CLR,SKC,0.00,WeatherDisplay:10.37,2013-04-25 13:58:00,
2013-04-25 15:03:00,53.4,41.5,29.62,SW,225,0.0,0.0,64,0.00,CLR,SKC,0.00,WeatherDisplay:10.37,2013-04-25 14:03:00,
2013-04-25 15:08:00,53.2,41.4,29.62,NW,315,0.0,0.0,64,0.00,CLR,SKC,0.00,WeatherDisplay:10.37,2013-04-25 14:08:00,
2013-04-25 15:13:00,53.4,41.5,29.61,NW,315,0.0,0.0,64,0.00,CLR,SKC,0.00,WeatherDisplay:10.37,2013-04-25 14:13:00,
2013-04-25 15:18:00,53.8,41.9,29.61,SW,225,0.0,0.0,64,0.00,CLR,SKC,0.00,WeatherDisplay:10.37,2013-04-25 14:18:00,
2013-04-25 15:23:00,54.1,42.2,29.61,West,270,0.0,0.0,64,0.00,CLR,SKC,0.00,WeatherDisplay:10.37,2013-04-25 14:23:00,
2013-04-25 15:28:00,53.8,41.9,29.61,NNW,338,0.0,0.0,64,0.00,CLR,SKC,0.00,WeatherDisplay:10.37,2013-04-25 14:28:00,
2013-04-25 15:33:00,52.5,41.1,29.62,WNW,292,0.0,0.0,65,0.00,CLR,SKC,0.00,WeatherDisplay:10.37,2013-04-25 14:33:00,
2013-04-25 15:38:00,51.6,41.4,29.61,SSW,202,0.0,0.0,68,0.00,CLR,SKC,0.00,WeatherDisplay:10.37,2013-04-25 14:38:00,
2013-04-25 15:43:00,51.1,41.3,29.62,SSW,202,0.0,0.0,69,0.00,CLR,SKC,0.00,WeatherDisplay:10.37,2013-04-25 14:43:00,
2013-04-25 15:48:00,50.7,40.9,29.62,West,270,0.0,0.0,69,0.00,CLR,SKC,0.00,WeatherDisplay:10.37,2013-04-25 14:48:00,
2013-04-25 15:53:00,50.7,40.9,29.62,WNW,292,0.0,0.0,69,0.00,CLR,SKC,0.00,WeatherDisplay:10.37,2013-04-25 14:53:00,
2013-04-25 15:58:00,50.9,41.5,29.61,South,180,0.0,0.0,70,0.00,CLR,SKC,0.00,WeatherDisplay:10.37,2013-04-25 14:58:00,
2013-04-25 16:03:00,51.1,41.6,29.61,SW,225,0.0,0.0,70,0.00,CLR,SKC,0.00,WeatherDisplay:10.37,2013-04-25 15:03:00,
2013-04-25 16:08:00,51.1,41.3,29.60,WNW,292,0.0,0.0,69,0.00,CLR,SKC,0.00,WeatherDisplay:10.37,2013-04-25 15:08:00,
2013-04-25 16:13:00,51.1,41.3,29.60,West,270,0.0,0.0,69,0.00,CLR,SKC,0.00,WeatherDisplay:10.37,2013-04-25 15:13:00,
2013-04-25 16:18:00,51.1,41.3,29.60,SW,225,0.0,0.0,69,0.00,CLR,SKC,0.00,WeatherDisplay:10.37,2013-04-25 15:18:00,
2013-04-25 16:23:00,51.4,41.6,29.60,SSW,202,0.0,0.0,69,0.00,CLR,SKC,0.00,WeatherDisplay:10.37,2013-04-25 15:23:00,
2013-04-25 16:28:00,52.2,41.9,29.60,WSW,248,0.0,0.0,68,0.00,CLR,SKC,0.00,WeatherDisplay:10.37,2013-04-25 15:28:00,
2013-04-25 16:33:00,53.2,42.6,29.60,SW,225,0.0,0.0,67,0.00,CLR,SKC,0.00,WeatherDisplay:10.37,2013-04-25 15:33:00,
2013-04-25 16:38:00,53.2,42.2,29.60,WNW,292,0.0,0.0,66,0.00,CLR,SKC,0.00,WeatherDisplay:10.37,2013-04-25 15:38:00,
2013-04-25 16:43:00,53.4,41.9,29.60,SW,225,0.0,0.0,65,0.00,CLR,SKC,0.00,WeatherDisplay:10.37,2013-04-25 15:43:00,
2013-04-25 16:48:00,54.0,42.1,29.60,West,270,0.0,0.0,64,0.00,CLR,SKC,0.00,WeatherDisplay:10.37,2013-04-25 15:48:00,
2013-04-25 16:53:00,54.3,42.4,29.60,WSW,248,0.0,0.0,64,0.00,CLR,SKC,0.00,WeatherDisplay:10.37,2013-04-25 15:53:00,
2013-04-25 16:58:00,54.3,41.6,29.60,WNW,292,0.0,0.0,62,0.00,CLR,SKC,0.00,WeatherDisplay:10.37,2013-04-25 15:58:00,
2013-04-25 17:03:00,53.8,41.1,29.60,WNW,292,0.0,0.0,62,0.00,CLR,SKC,0.00,WeatherDisplay:10.37,2013-04-25 16:03:00,
2013-04-25 17:08:00,53.4,40.7,29.60,WSW,248,0.0,0.0,62,0.00,CLR,SKC,0.00,WeatherDisplay:10.37,2013-04-25 16:08:00,
2013-04-25 17:13:00,53.4,40.7,29.60,WNW,292,0.0,0.0,62,0.00,CLR,SKC,0.00,WeatherDisplay:10.37,2013-04-25 16:13:00,
2013-04-25 17:18:00,53.2,40.5,29.60,WNW,292,0.0,0.0,62,0.00,CLR,SKC,0.00,WeatherDisplay:10.37,2013-04-25 16:18:00,
2013-04-25 17:23:00,52.3,40.1,29.61,North,0,0.0,0.0,63,0.00,CLR,SKC,0.00,WeatherDisplay:10.37,2013-04-25 16:23:00,
2013-04-25 17:28:00,52.3,40.1,29.60,SW,225,0.0,0.0,63,0.00,CLR,SKC,0.00,WeatherDisplay:10.37,2013-04-25 16:28:00,
2013-04-25 17:33:00,52.2,39.5,29.60,NW,315,0.0,0.0,62,0.00,CLR,SKC,0.00,WeatherDisplay:10.37,2013-04-25 16:33:00,
2013-04-25 17:38:00,52.0,39.8,29.60,NW,315,0.0,0.0,63,0.00,CLR,SKC,0.00,WeatherDisplay:10.37,2013-04-25 16:38:00,
2013-04-25 17:43:00,52.5,40.7,29.60,WNW,292,0.0,0.0,64,0.00,CLR,SKC,0.00,WeatherDisplay:10.37,2013-04-25 16:43:00,
2013-04-25 17:48:00,55.4,42.6,29.60,NW,315,0.0,0.0,62,0.00,CLR,SKC,0.00,WeatherDisplay:10.37,2013-04-25 16:48:00,
2013-04-25 17:53:00,58.8,43.6,29.59,NW,315,0.0,0.0,57,0.00,CLR,SKC,0.00,WeatherDisplay:10.37,2013-04-25 16:53:00,
2013-04-25 17:58:00,61.0,44.7,29.59,SW,225,0.0,0.0,55,0.00,CLR,SKC,0.00,WeatherDisplay:10.37,2013-04-25 16:58:00,
2013-04-25 18:03:00,62.4,44.6,29.59,WSW,248,0.0,0.0,52,0.00,CLR,SKC,0.00,WeatherDisplay:10.37,2013-04-25 17:03:00,
2013-04-25 18:08:00,63.5,45.0,29.59,NW,315,0.0,0.0,51,0.00,CLR,SKC,0.00,WeatherDisplay:10.37,2013-04-25 17:08:00,
2013-04-25 18:14:00,64.0,44.5,29.59,NW,315,0.0,0.0,49,0.00,CLR,SKC,0.00,WeatherDisplay:10.37,2013-04-25 17:14:00,
2013-04-25 18:19:00,64.2,43.6,29.59,WNW,292,0.0,0.0,47,0.00,CLR,SKC,0.00,WeatherDisplay:10.37,2013-04-25 17:19:00,
2013-04-25 18:24:00,64.0,43.4,29.59,SW,225,0.0,0.0,47,0.00,CLR,SKC,0.00,WeatherDisplay:10.37,2013-04-25 17:24:00,
2013-04-25 18:29:00,63.7,43.1,29.59,WNW,292,0.0,0.0,47,0.00,CLR,SKC,0.00,WeatherDisplay:10.37,2013-04-25 17:29:00,
2013-04-25 18:34:00,63.5,42.3,29.58,West,270,0.0,0.0,46,0.00,CLR,SKC,0.00,WeatherDisplay:10.37,2013-04-25 17:34:00,
2013-04-25 18:39:00,63.0,41.8,29.58,WNW,292,0.0,0.0,46,0.00,CLR,SKC,0.00,WeatherDisplay:10.37,2013-04-25 17:39:00,
2013-04-25 18:44:00,63.3,42.7,29.59,SW,225,0.0,0.0,47,0.00,CLR,SKC,0.00,WeatherDisplay:10.37,2013-04-25 17:44:00,
2013-04-25 18:49:00,63.0,41.8,29.59,NE,45,0.0,0.0,46,0.00,CLR,SKC,0.00,WeatherDisplay:10.37,2013-04-25 17:49:00,
2013-04-25 18:54:00,62.4,40.8,29.59,NW,315,0.0,0.0,45,0.00,CLR,SKC,0.00,WeatherDisplay:10.37,2013-04-25 17:54:00,
2013-04-25 18:59:00,61.5,40.0,29.59,WNW,292,0.0,0.0,45,0.00,CLR,SKC,0.00,WeatherDisplay:10.37,2013-04-25 17:59:00,
2013-04-25 19:04:00,61.9,40.3,29.59,NNW,338,0.0,0.0,45,0.00,CLR,SKC,0.00,WeatherDisplay:10.37,2013-04-25 18:04:00,
2013-04-25 19:09:00,61.9,39.7,29.59,West,270,0.0,0.0,44,0.00,CLR,SKC,0.00,WeatherDisplay:10.37,2013-04-25 18:09:00,
2013-04-25 19:14:00,61.0,38.9,29.59,NW,315,0.0,0.0,44,0.00,CLR,SKC,0.00,WeatherDisplay:10.37,2013-04-25 18:14:00,
2013-04-25 19:19:00,60.4,39.0,29.59,WSW,248,0.0,0.0,45,0.00,CLR,SKC,0.00,WeatherDisplay:10.37,2013-04-25 18:19:00,
2013-04-25 19:24:00,58.1,37.4,29.59,West,270,0.0,0.0,46,0.00,CLR,SKC,0.00,WeatherDisplay:10.37,2013-04-25 18:24:00,
2013-04-25 19:29:00,54.0,34.7,29.59,WNW,292,0.0,0.0,48,0.00,CLR,SKC,0.00,WeatherDisplay:10.37,2013-04-25 18:29:00,
2013-04-25 19:34:00,52.3,35.2,29.59,NNE,22,0.0,0.0,52,0.00,CLR,SKC,0.00,WeatherDisplay:10.37,2013-04-25 18:34:00,
2013-04-25 19:39:00,50.9,34.4,29.59,WNW,292,0.0,0.0,53,0.00,CLR,SKC,0.00,WeatherDisplay:10.37,2013-04-25 18:39:00,
2013-04-25 19:44:00,49.8,34.7,29.59,NW,315,0.0,0.0,56,0.00,CLR,SKC,0.00,WeatherDisplay:10.37,2013-04-25 18:44:00,
2013-04-25 19:49:00,49.1,34.5,29.59,WSW,248,0.0,0.0,57,0.00,CLR,SKC,0.00,WeatherDisplay:10.37,2013-04-25 18:49:00,
2013-04-25 19:54:00,48.6,34.9,29.59,NW,315,0.0,0.0,59,0.00,CLR,SKC,0.00,WeatherDisplay:10.37,2013-04-25 18:54:00,
2013-04-25 19:59:00,48.0,34.8,29.59,NNW,338,0.0,0.0,60,0.00,CLR,SKC,0.00,WeatherDisplay:10.37,2013-04-25 18:59:00,
2013-04-25 20:04:00,47.7,34.4,29.59,West,270,0.0,0.0,60,0.00,CLR,SKC,0.00,WeatherDisplay:10.37,2013-04-25 19:04:00,
2013-04-25 20:09:00,47.3,34.5,29.59,WNW,292,0.0,0.0,61,0.00,CLR,SKC,0.00,WeatherDisplay:10.37,2013-04-25 19:09:00,
2013-04-25 20:14:00,46.9,34.6,29.59,NW,315,0.0,0.0,62,0.00,CLR,SKC,0.00,WeatherDisplay:10.37,2013-04-25 19:14:00,
2013-04-25 20:19:00,46.2,33.9,29.59,WSW,248,0.0,0.0,62,0.00,CLR,SKC,0.00,WeatherDisplay:10.37,2013-04-25 19:19:00,
2013-04-25 20:24:00,46.0,34.1,29.59,WNW,292,0.0,0.0,63,0.00,CLR,SKC,0.00,WeatherDisplay:10.37,2013-04-25 19:24:00,
2013-04-25 20:29:00,45.7,34.2,29.59,West,270,0.0,0.0,64,0.00,CLR,SKC,0.00,WeatherDisplay:10.37,2013-04-25 19:29:00,
2013-04-25 20:34:00,45.3,34.2,29.59,WNW,292,0.0,0.0,65,0.00,CLR,SKC,0.00,WeatherDisplay:10.37,2013-04-25 19:34:00,
2013-04-25 20:39:00,45.1,34.5,29.59,WSW,248,0.0,0.0,66,0.00,CLR,SKC,0.00,WeatherDisplay:10.37,2013-04-25 19:39:00,
2013-04-25 20:44:00,45.0,34.7,29.59,WSW,248,0.0,0.0,67,0.00,CLR,SKC,0.00,WeatherDisplay:10.37,2013-04-25 19:44:00,
2013-04-25 20:49:00,44.4,34.1,29.59,WNW,292,0.0,0.0,67,0.00,CLR,SKC,0.00,WeatherDisplay:10.37,2013-04-25 19:49:00,
2013-04-25 20:54:00,44.2,34.0,29.59,NNW,338,0.0,0.0,67,0.00,CLR,SKC,0.00,WeatherDisplay:10.37,2013-04-25 19:54:00,
2013-04-25 20:59:00,43.9,34.0,29.60,West,270,0.0,0.0,68,0.00,CLR,SKC,0.00,WeatherDisplay:10.37,2013-04-25 19:59:00,
2013-04-25 21:04:00,43.7,34.2,29.60,NW,315,0.0,0.0,69,0.00,CLR,SKC,0.00,WeatherDisplay:10.37,2013-04-25 20:04:00,
2013-04-25 21:09:00,43.3,33.8,29.60,WNW,292,0.0,0.0,69,0.00,CLR,SKC,0.00,WeatherDisplay:10.37,2013-04-25 20:09:00,
2013-04-25 21:14:00,43.3,33.8,29.60,WNW,292,0.0,0.0,69,0.00,CLR,SKC,0.00,WeatherDisplay:10.37,2013-04-25 20:14:00,
2013-04-25 21:19:00,43.0,33.9,29.60,NW,315,0.0,0.0,70,0.00,CLR,SKC,0.00,WeatherDisplay:10.37,2013-04-25 20:19:00,
2013-04-25 21:24:00,43.0,33.9,29.60,WNW,292,0.0,0.0,70,0.00,CLR,SKC,0.00,WeatherDisplay:10.37,2013-04-25 20:24:00,
2013-04-25 21:29:00,42.6,33.9,29.60,NNW,338,0.0,0.0,71,0.00,CLR,SKC,0.00,WeatherDisplay:10.37,2013-04-25 20:29:00,
2013-04-25 21:34:00,42.6,33.9,29.60,NW,315,0.0,0.0,71,0.00,CLR,SKC,0.00,WeatherDisplay:10.37,2013-04-25 20:34:00,
2013-04-25 21:39:00,42.6,34.2,29.60,WNW,292,0.0,0.0,72,0.00,CLR,SKC,0.00,WeatherDisplay:10.37,2013-04-25 20:39:00,
2013-04-25 21:45:00,42.8,34.4,29.60,NW,315,0.0,0.0,72,0.00,CLR,SKC,0.00,WeatherDisplay:10.37,2013-04-25 20:45:00,
2013-04-25 21:50:00,43.0,34.6,29.60,West,270,0.0,0.0,72,0.00,CLR,SKC,0.00,WeatherDisplay:10.37,2013-04-25 20:50:00,
2013-04-25 21:55:00,42.9,34.5,29.60,West,276,0.0,0.0,72,0.00,CLR,SKC,0.00,WeatherDisplay:10.37,2013-04-25 20:55:00,
2013-04-25 22:00:00,42.6,34.2,29.60,NW,315,0.0,0.0,72,0.00,CLR,SKC,0.00,WeatherDisplay:10.37,2013-04-25 21:00:00,
2013-04-25 22:05:00,42.6,34.6,29.60,WNW,282,0.0,0.0,73,0.00,CLR,SKC,0.00,WeatherDisplay:10.37,2013-04-25 21:05:00,
2013-04-25 22:10:00,42.4,34.4,29.60,WSW,248,0.0,0.0,73,0.00,CLR,SKC,0.00,WeatherDisplay:10.37,2013-04-25 21:10:00,
2013-04-25 22:15:00,42.3,34.6,29.60,West,274,0.0,0.0,74,0.00,CLR,SKC,0.00,WeatherDisplay:10.37,2013-04-25 21:15:00,
2013-04-25 22:20:00,42.1,34.4,29.61,West,277,0.0,0.0,74,0.00,CLR,SKC,0.00,WeatherDisplay:10.37,2013-04-25 21:20:00,
2013-04-25 22:25:00,42.1,34.4,29.60,NW,315,0.0,0.0,74,0.00,CLR,SKC,0.00,WeatherDisplay:10.37,2013-04-25 21:25:00,
2013-04-25 22:30:00,41.7,34.0,29.60,West,270,0.0,0.0,74,0.00,CLR,SKC,0.00,WeatherDisplay:10.37,2013-04-25 21:30:00,
2013-04-25 22:35:00,41.7,34.0,29.60,WNW,294,0.0,0.0,74,0.00,CLR,SKC,0.00,WeatherDisplay:10.37,2013-04-25 21:35:00,
2013-04-25 22:40:00,41.5,34.2,29.60,West,270,0.0,0.0,75,0.00,CLR,SKC,0.00,WeatherDisplay:10.37,2013-04-25 21:40:00,
2013-04-25 22:45:00,41.4,34.0,29.60,West,277,0.0,0.0,75,0.00,CLR,SKC,0.00,WeatherDisplay:10.37,2013-04-25 21:45:00,
2013-04-25 22:50:00,41.2,33.9,29.60,WSW,256,0.0,0.0,75,0.00,CLR,SKC,0.00,WeatherDisplay:10.37,2013-04-25 21:50:00,
2013-04-25 22:55:00,40.8,33.8,29.60,NNW,338,0.0,0.0,76,0.00,CLR,SKC,0.00,WeatherDisplay:10.37,2013-04-25 21:55:00,
2013-04-25 23:00:00,40.8,33.8,29.61,NW,306,0.0,0.0,76,0.00,CLR,SKC,0.00,WeatherDisplay:10.37,2013-04-25 22:00:00,
2013-04-25 23:05:00,40.6,33.7,29.60,NW,317,0.0,0.0,76,0.00,CLR,SKC,0.00,WeatherDisplay:10.37,2013-04-25 22:05:00,
2013-04-25 23:10:00,40.3,33.3,29.60,SSW,202,0.0,0.0,76,0.00,CLR,SKC,0.00,WeatherDisplay:10.37,2013-04-25 22:10:00,
2013-04-25 23:15:00,39.9,33.0,29.60,West,276,0.0,0.0,76,0.00,CLR,SKC,0.00,WeatherDisplay:10.37,2013-04-25 22:15:00,
2013-04-25 23:20:00,39.7,32.8,29.61,WNW,292,0.0,0.0,76,0.00,CLR,SKC,0.00,WeatherDisplay:10.37,2013-04-25 22:20:00,
2013-04-25 23:25:00,39.4,32.4,29.60,WNW,292,0.0,0.0,76,0.00,CLR,SKC,0.00,WeatherDisplay:10.37,2013-04-25 22:25:00,
2013-04-25 23:29:00,39.4,32.4,29.60,WNW,292,0.0,0.0,76,0.00,CLR,SKC,0.00,WeatherDisplay:10.37,2013-04-25 22:29:00,
2013-04-25 23:35:00,39.0,32.4,29.60,West,270,0.0,0.0,77,0.00,CLR,SKC,0.00,WeatherDisplay:10.37,2013-04-25 22:35:00,
2013-04-25 23:40:00,39.0,32.4,29.60,West,271,0.0,0.0,77,0.00,CLR,SKC,0.00,WeatherDisplay:10.37,2013-04-25 22:40:00,
2013-04-25 23:45:00,38.8,32.2,29.60,WNW,292,0.0,0.0,77,0.00,CLR,SKC,0.00,WeatherDisplay:10.37,2013-04-25 22:45:00,
2013-04-25 23:50:00,38.8,32.2,29.60,WNW,291,0.0,0.0,77,0.00,CLR,SKC,0.00,WeatherDisplay:10.37,2013-04-25 22:50:00,
2013-04-25 23:55:00,39.0,32.7,29.60,WNW,290,0.0,0.0,78,0.00,CLR,SKC,0.00,WeatherDisplay:10.37,2013-04-25 22:55:00,